Temp
12 12 11 11 11 11 10 10 10 10 9 9 9 9 8 8 8 8 7 7 7 6
12 12 11 11 11 10 10 10 9 9 9 9 9 8 8 8 8 7 7 7 6 6
11 11 11 10 10 10 10 9 9 9 9 8 8 8 8 8 7 7 7 7 6 6
11 10 10 10 10 10 9 9 9 9 9 8 8 8 8 8 7 7 7 6 6 5
10 10 10 10 9 9 9 9 9 8 8 8 8 8 8 7 7 6 6 5 5 5
10 9 9 9 9 9 9 8 8 8 8 8 7 7 7 7 6 6 5 5 4 4
9 9 9 9 8 8 8 8 8 8 7 7 7 6 6 6 6 5 5 4 4 4
9 8 8 8 8 8 8 7 7 7 7 6 6 5 5 5 5 4 4 4 3 3
8 8 8 7 7 7 7 7 7 7 6 6 5 5 4 4 4 3 3 2 2 2
7 7 7 7 7 7 7 6 6 6 5 5 4 4 3 3 3 2 2 1 1 0
7 7 6 6 7 6 6 6 5 5 5 4 3 3 3 3 2 1 1 0 -0 -0
7 6 6 6 6 6 5 5 5 4 4 4 3 3 2 1 1 0 -0 -0 -1 -1
6 7 6 6 5 5 5 4 4 3 3 3 3 2 1 0 -0 -0 -1 -1 -1 -1
6 6 6 5 5 4 4 4 3 3 3 2 2 1 1 0 -1 -1 -1 -1 -1 -1
Height
802 808 811 812 813 816 818 820 824 824 826 829 829 830 831 831 832 832 832 833 833 833
803 806 810 811 812 816 817 821 823 823 826 828 829 829 830 831 832 831 831 832 832 831
803 804 809 811 813 815 818 820 822 824 826 827 828 829 830 831 832 831 831 831 830 829
799 803 808 810 813 814 820 820 822 824 825 826 829 830 830 831 831 830 830 829 828 827
799 803 807 810 813 816 819 820 822 824 825 827 829 829 831 831 830 829 828 827 826 825
798 803 807 810 812 817 818 821 822 823 825 828 828 829 830 830 828 827 826 825 823 821
798 802 807 810 814 816 819 821 822 824 826 827 828 829 828 828 827 825 824 822 821 819
797 804 806 811 814 817 819 821 823 824 826 827 828 828 827 826 825 823 821 820 818 816
800 803 808 812 814 817 820 821 823 825 826 827 827 827 826 825 822 821 819 817 814 812
801 806 809 812 815 818 820 822 824 825 826 826 826 826 824 822 821 819 817 814 811 808
803 807 810 813 816 818 821 823 823 824 825 826 825 824 822 820 818 817 815 812 809 805
804 808 811 814 817 819 821 822 823 824 824 824 823 822 819 818 816 813 810 807 804 801
806 809 812 815 817 819 821 822 823 824 823 822 821 819 817 815 811 808 804 803 801 799
808 810 813 816 817 819 821 822 822 822 821 821 819 816 813 811 808 805 802 800 797 795
Wind_Speed
12 11 10 11 10 8 7 6 5 5 3 2 2 2 3 3 4 4 5 5 6 6
14 13 11 10 9 8 8 7 6 6 5 3 3 3 3 4 4 5 5 6 7 8
16 12 10 10 9 9 8 7 6 5 4 4 4 5 4 4 5 6 6 7 7 8
14 12 11 11 10 10 8 8 7 6 6 6 5 5 5 5 6 7 7 8 10 12
15 14 13 12 11 10 9 9 8 8 7 6 5 6 6 7 9 10 11 12 13 13
17 16 14 13 12 11 11 10 10 8 7 7 7 6 7 9 10 12 12 13 14 16
18 17 16 15 13 13 11 11 10 8 8 7 6 6 8 10 12 13 14 15 16 17
20 19 18 16 15 14 12 10 9 8 7 6 6 8 10 11 13 15 17 18 18 19
22 20 18 17 15 13 11 9 7 6 6 6 7 8 9 11 14 16 17 19 21 22
22 20 18 16 14 12 10 8 6 6 7 8 9 10 11 13 14 16 17 19 21 23
21 20 18 15 13 11 8 6 6 7 8 9 9 11 13 15 15 17 18 19 20 22
20 19 16 14 11 9 7 6 6 6 8 10 11 13 15 15 17 19 21 22 23 22
17 16 14 11 9 7 6 5 5 6 8 10 13 15 17 15 18 22 24 23 24 24
15 14 11 9 7 6 5 4 6 8 9 11 14 17 19 19 19 21 23 22 25 23
Wind_Direction
184 186 181 173 167 162 152 140 158 144 130 115 68 46 34 31 20 13 4 346 335 326
184 179 180 168 156 157 141 144 141 122 110 102 83 58 35 25 9 4 2 348 341 335
177 167 173 164 151 147 144 139 137 122 115 101 81 64 48 32 15 9 1 350 344 337
167 164 165 157 150 139 149 135 133 124 110 93 76 62 44 26 9 5 0 346 335 335
165 160 156 150 145 143 143 133 127 117 100 89 73 51 31 14 2 354 348 342 336 335
158 155 151 147 140 146 136 130 119 106 98 82 60 35 13 357 350 349 346 340 335 332
157 151 149 141 142 138 133 123 110 99 85 64 41 15 1 352 345 342 340 338 333 329
145 149 142 141 138 131 124 115 102 87 68 52 27 9 354 345 342 339 336 331 329 327
145 141 142 138 131 127 118 106 91 74 56 37 20 6 353 345 339 337 335 332 329 329
143 142 138 134 131 121 112 99 82 59 37 26 13 360 352 349 342 337 334 333 333 333
143 138 136 133 125 116 107 91 63 41 22 15 10 360 353 345 339 336 336 337 337 336
144 138 134 127 122 112 97 74 52 31 14 7 5 356 350 344 338 335 336 340 341 337
139 135 132 126 118 103 85 67 46 25 13 4 353 348 346 341 337 334 335 335 334 332
136 133 127 123 110 98 82 50 18 5 357 350 346 342 341 341 337 333 329 327 325 320